Terminal Aerodrome Forecast
Issued by NWS

Home | Current Version | Previous Version | Text Only | Print | Product List | Glossary On
Versions: 1 2 3 4 5 6 7 8 9 10 11 12 13 14 15 16 17 18 19 20 21 22 23 24 25 26 27 28 29 30 31 32 33 34 35 36 37 38 39 40 41 42 43 44 45 46 47
000
FTUS42 KMFL 011131
TAFOPF
TAF
KOPF 011131Z 0112/0212 28004KT P6SM SCT250
     FM011800 27007KT P6SM SCT250
     FM012000 24005KT P6SM VCTS FEW030CB SCT080 BKN120
     FM020000 23003KT P6SM BKN250=

USA.gov is the U.S. government's official web portal to all federal, state and local government web resources and services.